Estherville, IA

6:48 AM CDT on May 29, 2017 (GMT -0500)
Estherville Municipal

Weather History for KEST - December, 2013

Change the Weather History Date:

Friday, December 27, 2013

  Actual Average Record
Temperature  
Mean Temperature 28 °F 16 °F  
Max Temperature 42 °F 25 °F 48 °F (1958)
Min Temperature 13 °F 8 °F -18 °F (1951)
Degree Days  
Heating Degree Days 37 49  
Month to date heating degree days 1367 1229  
Since 1 July heating degree days 3020 2948  
Cooling Degree Days 0 0  
Month to date cooling degree days 0 0  
Year to date cooling degree days 712 593  
Moisture  
Dew Point 25 °F    
Average Humidity 79    
Maximum Humidity 96    
Minimum Humidity 62    
Precipitation  
Precipitation 0.00 in 0.01 in 0.50 in (1959)
Month to date precipitation 0.14 0.63  
Sea Level Pressure  
Sea Level Pressure 30.10 in    
Wind  
Wind Speed 12 mph (SW)    
Max Wind Speed 28 mph    
Max Gust Speed 34 mph    
Visibility 10 miles    
Events      
T = Trace of Precipitation, MM = Missing Value Source: NWS Daily Summary

Daily Weather History Graph

Daily Weather History Graph

Search for Another Location

Airport or City:

Trip Planner

Search our weather history database for the weather conditions in past years. The results will help you decide how hot, cold, wet, or windy it might be!

Date:

Astronomy

Dec. 27, 2013 Rise Set
Actual Time 7:50 AM CST 4:49 PM CST
Civil Twilight 7:18 AM CST 5:22 PM CST
Nautical Twilight 6:42 AM CST 5:58 PM CST
Astronomical Twilight 6:07 AM CST 6:33 PM CST
Moon 2:17 AM CST (12/27) 1:06 PM CST (12/27)
Length of Visible Light 10h 04m
Length of Day
8h 58m
Waning Crescent, 28% of the Moon is Illuminated
Dec 27
Waning Crescent
Jan 1
New
Jan 7
First Quarter
Jan 15
Full
Jan 23
Last Quarter

Hourly Weather History & Observations

Time (CST) Temp. Windchill Dew Point Humidity Pressure Visibility Wind Dir Wind Speed Gust Speed Precip Events Conditions
12:52 AM 17.1 °F 10.0 °F 15.1 °F 92% 30.22 in 10.0 mi West 4.6 mph - N/A   Clear
1:52 AM 14.0 °F 2.9 °F 12.0 °F 92% 30.22 in 10.0 mi WSW 8.1 mph - N/A   Clear
2:52 AM 17.1 °F 7.6 °F 15.1 °F 92% 30.22 in 10.0 mi WSW 6.9 mph - N/A   Clear
3:52 AM 12.9 °F 0.7 °F 10.9 °F 92% 30.22 in 10.0 mi WSW 9.2 mph - N/A   Clear
4:52 AM 17.1 °F 5.0 °F 15.1 °F 92% 30.18 in 10.0 mi SSW 10.4 mph - N/A   Clear
5:52 AM 16.0 °F 5.3 °F 14.0 °F 92% 30.17 in 10.0 mi South 8.1 mph - N/A   Clear
6:52 AM 16.0 °F 4.4 °F 14.0 °F 92% 30.17 in 10.0 mi South 9.2 mph - N/A   Clear
7:52 AM 23.0 °F 11.7 °F 21.0 °F 92% 30.15 in 10.0 mi South 11.5 mph - N/A   Clear
8:52 AM 28.0 °F 15.7 °F 24.1 °F 85% 30.11 in 10.0 mi SSW 17.3 mph - N/A   Clear
9:52 AM 33.1 °F 21.9 °F 27.0 °F 78% 30.08 in 10.0 mi SSW 18.4 mph 26.5 mph N/A   Clear
10:52 AM 37.9 °F 26.3 °F 28.9 °F 70% 30.06 in 10.0 mi SW 26.5 mph 33.4 mph N/A   Mostly Cloudy
11:52 AM 39.9 °F 29.2 °F 30.0 °F 68% 30.03 in 10.0 mi SW 25.3 mph 34.5 mph N/A   Clear
12:52 PM 41.0 °F 31.9 °F 30.9 °F 67% 30.03 in 10.0 mi WSW 19.6 mph - N/A   Clear
1:52 PM 42.1 °F 33.3 °F 30.9 °F 65% 30.02 in 10.0 mi WSW 19.6 mph - N/A   Clear
2:52 PM 42.1 °F 33.9 °F 32.0 °F 67% 30.03 in 10.0 mi West 17.3 mph 23.0 mph N/A   Clear
3:52 PM 41.0 °F 33.9 °F 32.0 °F 70% 30.06 in 10.0 mi West 12.7 mph - N/A   Clear
4:52 PM 39.0 °F 32.3 °F 30.9 °F 73% 30.06 in 10.0 mi West 10.4 mph - N/A   Clear
5:52 PM 37.0 °F 29.8 °F 30.9 °F 79% 30.08 in 10.0 mi West 10.4 mph - N/A   Clear
6:52 PM 35.1 °F 26.9 °F 30.9 °F 85% 30.08 in 10.0 mi WNW 11.5 mph - N/A   Clear
7:52 PM 34.0 °F - 30.9 °F 89% 30.08 in 10.0 mi Calm Calm - N/A   Clear
8:52 PM 34.0 °F 28.8 °F 30.0 °F 85% 30.08 in 10.0 mi WSW 5.8 mph - N/A   Clear
9:52 PM 32.0 °F 24.8 °F 28.9 °F 88% 30.06 in 10.0 mi SSW 8.1 mph - N/A   Clear
10:52 PM 33.1 °F 24.9 °F 30.0 °F 89% 30.05 in 10.0 mi WSW 10.4 mph - N/A   Clear
11:52 PM 30.9 °F 25.2 °F 28.9 °F 92% 30.03 in 10.0 mi South 5.8 mph - N/A   Clear